MOLNIYA 1-29

Last updated on Jan. 26, 2021, 8:12 a.m. UTC

1 07780U 75036A   21025.75182379  .00000203  00000-0 -10183-1 0  9995
2 07780  63.1790 278.8930 7254505 289.3162  10.0148  2.00636955335434
UTC
Height (km)
Latitude
Longitude
Inclination
Orbital Period
UTC large
Height (km)
Speed (km/s)
/
Latitude / Longitude
Inclination (degrees)
Orbital Period (minutes)
Azimuth
Elevation
Range (km)
Doppler Factor
iOS Compass Heading
iOS Angle

Next 30 passes for location: Hong Kong

Rise time Rise Azimuth (degrees) Set time Set Azimuth (degrees) Duration Max altitude (degrees)

No matching passes for this satellites